Weather History for Detroit Lakes, MN

Change the Weather History Date:

Saturday, May 18, 2013

  Actual Average Record
Temperature  
Mean Temperature 65 °F -  
Max Temperature 77 °F 72 °F 91 °F (2012)
Min Temperature 53 °F 44 °F 28 °F (1961)
Growing Degree Days 15 (Base 50)    
Moisture  
Dew Point 59 °F    
Average Humidity 82    
Maximum Humidity 100    
Minimum Humidity 61    
Precipitation  
Precipitation 0.47 in - - ()
Sea Level Pressure  
Sea Level Pressure 29.84 in    
Wind  
Wind Speed 11 mph (SE)    
Max Wind Speed 17 mph    
Max Gust Speed 22 mph    
Visibility 9 miles    
Events Rain , Thunderstorm    
Averages and records for this station are not official NWS values.
T = Trace of Precipitation, MM = Missing Value Source: NWS Daily Summary

Daily Weather History Graph

Daily Weather History Graph

Search for Another Location

Airport:

Trip Planner

Search our weather history database for the weather conditions in past years. The results will help you decide how hot, cold, wet, or windy it might be!

Date:

Astronomy

May. 18, 2013 Rise Set
Actual Time 5:44 AM CDT 8:55 PM CDT
Civil Twilight 5:08 AM CDT 9:32 PM CDT
Nautical Twilight 4:21 AM CDT 10:19 PM CDT
Astronomical Twilight 3:23 AM CDT 11:18 PM CDT
Moon 1:34 PM CDT (5/18) 2:04 AM CDT (5/18)
Length of Visible Light 16h 23m
Length of Day
15h 10m
First Quarter, 55% of the Moon is Illuminated
May 18
First Quarter
May 24
Full
May 31
Last Quarter
Jun 8
New
Jun 16
First Quarter

Hourly Weather History & Observations

Time (CDT) Temp. Dew Point Humidity Pressure Visibility Wind Dir Wind Speed Gust Speed Precip Events Conditions
12:16 AM 59.0 °F 53.6 °F 82% 29.91 in 10.0 mi SE 11.5 mph - N/A   Overcast
12:35 AM 59.0 °F 53.6 °F 82% 29.91 in 10.0 mi SE 13.8 mph 19.6 mph N/A   Overcast
12:55 AM 59.0 °F 53.6 °F 82% 29.91 in 10.0 mi SE 13.8 mph 17.3 mph N/A   Overcast
1:15 AM 59.0 °F 53.6 °F 82% 29.90 in 10.0 mi SE 11.5 mph 17.3 mph N/A   Overcast
1:35 AM 59.0 °F 51.8 °F 77% 29.90 in 10.0 mi SE 8.1 mph - N/A Thunderstorm Overcast
1:56 AM 57.2 °F 51.8 °F 82% 29.89 in 10.0 mi SE 11.5 mph 18.4 mph N/A Thunderstorm Thunderstorm
2:15 AM 57.2 °F 51.8 °F 82% 29.89 in 10.0 mi SE 17.3 mph - N/A Thunderstorm Overcast
2:35 AM 55.4 °F 51.8 °F 88% 29.90 in 10.0 mi SE 15.0 mph - N/A Thunderstorm Overcast
2:56 AM 55.4 °F 51.8 °F 88% 29.89 in 10.0 mi SE 13.8 mph - N/A Thunderstorm Overcast
3:15 AM 53.6 °F 51.8 °F 94% 29.88 in 2.0 mi SE 17.3 mph 21.9 mph 0.21 in Rain , Thunderstorm Thunderstorms and Rain
3:35 AM 53.6 °F 51.8 °F 94% 29.89 in 10.0 mi SSE 10.4 mph - 0.22 in Rain , Thunderstorm Thunderstorms and Rain
3:55 AM 53.6 °F 53.6 °F 100% 29.89 in 10.0 mi SE 9.2 mph - 0.22 in Rain , Thunderstorm Light Thunderstorms and Rain
4:15 AM 53.6 °F 53.6 °F 100% 29.89 in 10.0 mi SSE 9.2 mph - N/A Rain Light Rain
4:36 AM 53.6 °F 51.8 °F 94% 29.89 in 7.0 mi SE 11.5 mph - 0.03 in Rain , Thunderstorm Rain
4:55 AM 53.6 °F 51.8 °F 94% 29.89 in 7.0 mi SE 13.8 mph 18.4 mph 0.07 in Rain Rain
5:15 AM 53.6 °F 51.8 °F 94% 29.89 in 7.0 mi SE 11.5 mph - 0.05 in Rain Rain
5:36 AM 53.6 °F 53.6 °F 100% 29.86 in 10.0 mi East 6.9 mph - 0.07 in Rain Light Rain
5:55 AM 53.6 °F 53.6 °F 100% 29.88 in 10.0 mi SSE 8.1 mph - 0.08 in Rain Light Rain
6:15 AM 53.6 °F 53.6 °F 100% 29.90 in 10.0 mi SSE 11.5 mph - 0.03 in Rain Rain
6:36 AM 53.6 °F 53.6 °F 100% 29.90 in 7.0 mi SSE 11.5 mph - 0.04 in Rain Rain
6:55 AM 55.4 °F 53.6 °F 94% 29.91 in 5.0 mi SSE 10.4 mph - 0.06 in Rain Light Rain
7:15 AM 55.4 °F 53.6 °F 94% 29.90 in 5.0 mi SSE 11.5 mph - 0.02 in Rain Rain
7:36 AM 55.4 °F 53.6 °F 94% 29.89 in 5.0 mi SSE 8.1 mph - 0.03 in   Drizzle
7:55 AM 55.4 °F 55.4 °F 100% 29.88 in 5.0 mi SE 9.2 mph - 0.03 in Rain Rain
8:15 AM 55.4 °F 55.4 °F 100% 29.88 in 5.0 mi SE 8.1 mph - 0.01 in Rain Light Rain
8:36 AM 55.4 °F 55.4 °F 100% 29.87 in 5.0 mi SE 8.1 mph - 0.01 in   Light Drizzle
8:55 AM 57.2 °F 55.4 °F 94% 29.86 in 5.0 mi SE 9.2 mph - 0.01 in   Light Drizzle
9:15 AM 59.0 °F 57.2 °F 94% 29.86 in 5.0 mi SSE 9.2 mph - N/A   Overcast
9:36 AM 59.0 °F 57.2 °F 94% 29.85 in 5.0 mi SSE 11.5 mph - N/A   Overcast
9:55 AM 59.0 °F 57.2 °F 94% 29.86 in 5.0 mi SSE 12.7 mph - N/A   Overcast
10:15 AM 60.8 °F 59.0 °F 94% 29.85 in 5.0 mi SSE 9.2 mph - N/A   Overcast
10:36 AM 62.6 °F 60.8 °F 94% 29.86 in 10.0 mi South 9.2 mph - N/A   Mostly Cloudy
10:55 AM 62.6 °F 59.0 °F 88% 29.86 in 10.0 mi South 10.4 mph 16.1 mph N/A   Mostly Cloudy
11:15 AM 64.4 °F 59.0 °F 83% 29.86 in 10.0 mi South 6.9 mph - N/A   Overcast
11:36 AM 64.4 °F 60.8 °F 88% 29.85 in 10.0 mi South 9.2 mph - N/A   Mostly Cloudy
11:55 AM 68.0 °F 60.8 °F 78% 29.85 in 10.0 mi South 11.5 mph 17.3 mph N/A   Mostly Cloudy
12:15 PM 68.0 °F 60.8 °F 78% 29.83 in 10.0 mi SSE 10.4 mph - N/A   Scattered Clouds
12:36 PM 68.0 °F 60.8 °F 78% 29.83 in 10.0 mi SSE 12.7 mph - N/A   Clear
12:55 PM 69.8 °F 62.6 °F 78% 29.82 in 10.0 mi SSE 12.7 mph - N/A   Scattered Clouds
1:15 PM 69.8 °F 60.8 °F 73% 29.81 in 10.0 mi South 11.5 mph - N/A   Scattered Clouds
1:36 PM 71.6 °F 62.6 °F 73% 29.82 in 10.0 mi South 11.5 mph 16.1 mph N/A   Clear
2:15 PM 71.6 °F 62.6 °F 73% 29.82 in 10.0 mi South 10.4 mph 16.1 mph N/A   Scattered Clouds
2:35 PM 73.4 °F 60.8 °F 65% 29.82 in 10.0 mi South 6.9 mph - N/A   Clear
2:55 PM 73.4 °F 60.8 °F 65% 29.82 in 10.0 mi South 6.9 mph - N/A   Clear
3:16 PM 75.2 °F 62.6 °F 65% 29.82 in 10.0 mi South 5.8 mph - N/A   Clear
3:35 PM 75.2 °F 62.6 °F 65% 29.82 in 10.0 mi SE 8.1 mph - N/A   Clear
3:55 PM 75.2 °F 62.6 °F 65% 29.82 in 10.0 mi SSE 8.1 mph - N/A   Clear
4:16 PM 77.0 °F 62.6 °F 61% 29.81 in 10.0 mi SSE 5.8 mph - N/A   Clear
4:35 PM 77.0 °F 62.6 °F 61% 29.81 in 10.0 mi SSE 6.9 mph - N/A   Clear
5:16 PM 77.0 °F 62.6 °F 61% 29.81 in 10.0 mi SSE 5.8 mph - N/A   Clear
5:35 PM 77.0 °F 62.6 °F 61% 29.81 in 10.0 mi SE 11.5 mph - N/A   Clear
5:55 PM 77.0 °F 62.6 °F 61% 29.80 in 10.0 mi SE 10.4 mph - N/A   Scattered Clouds
6:16 PM 75.2 °F 62.6 °F 65% 29.80 in 10.0 mi SSE 10.4 mph - N/A   Clear
6:35 PM 75.2 °F 62.6 °F 65% 29.79 in 10.0 mi SSE 10.4 mph - N/A   Clear
6:55 PM 77.0 °F 62.6 °F 61% 29.79 in 10.0 mi SSE 10.4 mph - N/A   Clear
7:16 PM 75.2 °F 62.6 °F 65% 29.79 in 10.0 mi SSE 11.5 mph - N/A Thunderstorm Clear
7:35 PM 73.4 °F 62.6 °F 69% 29.79 in 10.0 mi SSE 9.2 mph - N/A   Clear
7:55 PM 73.4 °F 62.6 °F 69% 29.80 in 10.0 mi SE 6.9 mph - N/A   Clear
8:16 PM 73.4 °F 62.6 °F 69% 29.80 in 10.0 mi SE 9.2 mph - N/A   Clear
8:35 PM 73.4 °F 62.6 °F 69% 29.80 in 10.0 mi SE 10.4 mph - N/A   Clear
8:55 PM 71.6 °F 62.6 °F 73% 29.79 in 10.0 mi SE 9.2 mph - N/A   Clear
9:16 PM 71.6 °F 62.6 °F 73% 29.79 in 10.0 mi SE 8.1 mph - N/A   Clear
9:35 PM 71.6 °F 64.4 °F 78% 29.79 in 10.0 mi ESE 4.6 mph - N/A   Clear
9:56 PM 71.6 °F 64.4 °F 78% 29.78 in 10.0 mi SE 9.2 mph - N/A   Clear
10:15 PM 69.8 °F 64.4 °F 83% 29.77 in 10.0 mi SE 9.2 mph - N/A   Clear
10:36 PM 68.0 °F 62.6 °F 83% 29.78 in 10.0 mi SSE 5.8 mph - N/A   Clear
10:55 PM 68.0 °F 64.4 °F 88% 29.78 in 7.0 mi SE 6.9 mph - N/A   Clear
11:15 PM 69.8 °F 64.4 °F 83% 29.78 in 10.0 mi ESE 5.8 mph - N/A   Clear
11:36 PM 69.8 °F 64.4 °F 83% 29.78 in 10.0 mi East 8.1 mph - N/A   Clear
11:55 PM 66.2 °F 62.6 °F 88% 29.78 in 7.0 mi NE 8.1 mph - N/A   Clear